KRUPKA Weather Reports


Display with metric or nautical units.
time (UTC)temp
F
wind
direction
speed
MPH
gust
MPH
rain 1hr
in
rain 24hr
in
rain mn
in
humidity
%
barometer
mb
20260503235003 59 342 2.0 4.0 0.00 0.00 0.00 43
20260503234504 59 54 0.0 2.0 0.00 0.00 0.00 43
20260503234004 59 178 0.0 0.0 0.00 0.00 0.00 43
20260503233504 59 168 2.0 2.0 0.00 0.00 0.00 43
20260503233004 59 142 0.0 0.0 0.00 0.00 0.00 43
20260503232503 59 157 2.0 4.0 0.00 0.00 0.00 44
20260503232007 61 137 2.0 4.0 0.00 0.00 0.00 43
20260503231503 61 148 4.0 4.0 0.00 0.00 0.00 43
20260503231003 61 162 2.0 2.0 0.00 0.00 0.00 43
20260503230503 61 139 4.0 4.0 0.00 0.00 0.00 43
20260503230004 61 134 2.0 4.0 0.00 0.00 0.00 43
20260503225503 61 154 2.0 2.0 0.00 0.00 0.00 43
20260503225003 61 128 4.0 4.0 0.00 0.00 0.00 43
20260503224504 61 129 4.0 4.0 0.00 0.00 0.00 42
20260503224003 61 145 2.0 4.0 0.00 0.00 0.00 42
20260503223504 61 151 4.0 4.0 0.00 0.00 0.00 42
20260503223003 61 150 4.0 7.0 0.00 0.00 0.00 42
20260503222503 61 142 7.0 7.0 0.00 0.00 0.00 42
20260503222005 61 149 7.0 7.0 0.00 0.00 0.00 42
20260503221504 61 148 7.0 9.0 0.00 0.00 0.00 42
20260503221004 61 135 7.0 9.0 0.00 0.00 0.00 42
20260503220504 61 110 4.0 7.0 0.00 0.00 0.00 41
20260503220004 63 114 4.0 7.0 0.00 0.00 0.00 41
20260503215503 63 134 4.0 4.0 0.00 0.00 0.00 40
20260503215004 63 112 2.0 4.0 0.00 0.00 0.00 40
20260503214503 63 176 2.0 4.0 0.00 0.00 0.00 40
20260503214003 63 176 7.0 9.0 0.00 0.00 0.00 41
20260503213503 63 157 2.0 2.0 0.00 0.00 0.00 39
20260503213003 63 114 2.0 2.0 0.00 0.00 0.00 39
20260503212504 63 96 2.0 2.0 0.00 0.00 0.00 39
20260503212006 63 172 2.0 2.0 0.00 0.00 0.00 39
20260503211503 63 144 9.0 11.0 0.00 0.00 0.00 40
20260503211004 63 158 4.0 7.0 0.00 0.00 0.00 39
20260503210504 63 137 7.0 9.0 0.00 0.00 0.00 39
20260503210003 63 142 4.0 7.0 0.00 0.00 0.00 38
20260503205503 64 185 4.0 7.0 0.00 0.00 0.00 38
20260503205003 64 146 4.0 7.0 0.00 0.00 0.00 38
20260503204503 64 154 7.0 11.0 0.00 0.00 0.00 38
20260503204003 64 145 11.0 16.0 0.00 0.00 0.00 38
20260503203503 64 108 7.0 9.0 0.00 0.00 0.00 37
20260503203003 64 131 7.0 9.0 0.00 0.00 0.00 37
20260503202503 64 111 2.0 4.0 0.00 0.00 0.00 36
20260503202005 64 120 2.0 4.0 0.00 0.00 0.00 36
20260503201508 64 139 7.0 9.0 0.00 0.00 0.00 36
20260503201003 64 175 9.0 11.0 0.00 0.00 0.00 36
20260503200503 64 115 4.0 4.0 0.00 0.00 0.00 35
20260503200004 64 123 4.0 9.0 0.00 0.00 0.00 35
20260503195503 66 131 7.0 9.0 0.00 0.00 0.00 35
20260503195003 66 136 9.0 13.0 0.00 0.00 0.00 35
20260503194503 66 132 7.0 7.0 0.00 0.00 0.00 35
20260503194002 66 136 4.0 9.0 0.00 0.00 0.00 35
20260503193503 66 118 9.0 11.0 0.00 0.00 0.00 34
20260503193003 66 116 2.0 4.0 0.00 0.00 0.00 34
20260503192504 66 113 7.0 9.0 0.00 0.00 0.00 34
20260503192005 66 122 4.0 9.0 0.00 0.00 0.00 34
20260503191503 66 100 4.0 7.0 0.00 0.00 0.00 34
20260503191002 66 109 0.0 2.0 0.00 0.00 0.00 34
20260503190504 66 119 7.0 7.0 0.00 0.00 0.00 33
20260503190003 66 116 4.0 9.0 0.00 0.00 0.00 33
20260503185503 66 124 7.0 9.0 0.00 0.00 0.00 33
20260503185003 66 107 7.0 9.0 0.00 0.00 0.00 33
20260503184504 66 109 7.0 9.0 0.00 0.00 0.00 33
20260503184004 66 111 7.0 9.0 0.00 0.00 0.00 33
20260503183503 66 112 7.0 7.0 0.00 0.00 0.00 33
20260503183004 66 113 7.0 9.0 0.00 0.00 0.00 33
20260503182503 68 114 7.0 11.0 0.00 0.00 0.00 33
20260503182007 68 101 7.0 9.0 0.00 0.00 0.00 33
20260503181505 68 121 7.0 9.0 0.00 0.00 0.00 33
20260503181004 68 119 7.0 9.0 0.00 0.00 0.00 33
20260503180504 68 123 7.0 9.0 0.00 0.00 0.00 32
20260503180008 68 135 7.0 7.0 0.00 0.00 0.00 32
20260503175503 68 143 7.0 7.0 0.00 0.00 0.00 32
20260503175003 68 143 7.0 9.0 0.00 0.00 0.00 32
20260503174503 68 128 7.0 7.0 0.00 0.00 0.00 33
20260503174003 68 133 4.0 7.0 0.00 0.00 0.00 33
20260503173504 68 117 4.0 4.0 0.00 0.00 0.00 33
20260503173004 68 138 4.0 4.0 0.00 0.00 0.00 33
20260503172504 68 148 4.0 7.0 0.00 0.00 0.00 33
20260503172006 68 151 4.0 7.0 0.00 0.00 0.00 32
20260503171503 68 153 4.0 4.0 0.00 0.00 0.00 32
20260503171004 68 144 4.0 4.0 0.00 0.00 0.00 33
20260503170504 68 124 4.0 4.0 0.00 0.00 0.00 33
20260503151003 70 128 2.0 4.0 0.00 0.00 0.00 32
20260503150504 70 134 4.0 7.0 0.00 0.00 0.00 33
20260503131003 70 170 4.0 13.0 0.00 0.00 0.00 35
20260503130503 68 179 4.0 7.0 0.00 0.00 0.00 35
20260503110503 66 114 2.0 4.0 0.00 0.00 0.00 39
20260503090503 66 140 2.0 4.0 0.00 0.00 0.00 39
20260503081503 61 128 2.0 4.0 0.00 0.00 0.00 42
20260503081003 61 139 2.0 4.0 0.00 0.00 0.00 42
20260503080503 61 146 2.0 4.0 0.00 0.00 0.00 44
20260503072502 59 137 2.0 2.0 0.00 0.00 0.00 44
20260503072003 59 115 2.0 2.0 0.00 0.00 0.00 43
20260503071503 59 126 0.0 2.0 0.00 0.00 0.00 44
20260503071003 57 133 0.0 2.0 0.00 0.00 0.00 44
20260503070504 59 111 0.0 2.0 0.00 0.00 0.00 43
20260503055002 54 51 2.0 2.0 0.00 0.00 0.00 45
20260503054504 54 49 2.0 4.0 0.00 0.00 0.00 45
20260503054003 54 51 2.0 2.0 0.00 0.00 0.00 45
20260503053504 54 63 2.0 2.0 0.00 0.00 0.00 45
20260503053002 55 79 2.0 2.0 0.00 0.00 0.00 45
20260503052502 55 59 2.0 2.0 0.00 0.00 0.00 44
20260503052005 55 58 0.0 2.0 0.00 0.00 0.00 44
20260503051504 55 52 2.0 2.0 0.00 0.00 0.00 44
20260503051004 55 39 0.0 2.0 0.00 0.00 0.00 44
20260503050503 54 37 2.0 2.0 0.00 0.00 0.00 44
20260503050003 54 24 2.0 2.0 0.00 0.00 0.00 45
20260503045503 54 12 4.0 4.0 0.00 0.00 0.00 45
20260503045003 52 14 4.0 4.0 0.00 0.00 0.00 45
20260503044504 52 19 4.0 4.0 0.00 0.00 0.00 45
20260503044003 52 17 4.0 4.0 0.00 0.00 0.00 45
20260503043503 52 25 4.0 4.0 0.00 0.00 0.00 45
20260503043003 52 39 4.0 4.0 0.00 0.00 0.00 46
20260503042503 52 59 4.0 4.0 0.00 0.00 0.00 45
20260503042005 52 89 2.0 4.0 0.00 0.00 0.00 43
20260503041504 52 116 4.0 4.0 0.00 0.00 0.00 43
20260503041003 54 142 4.0 4.0 0.00 0.00 0.00 43
20260503040503 54 157 2.0 4.0 0.00 0.00 0.00 43
20260503040003 54 166 2.0 2.0 0.00 0.00 0.00 43
20260503035502 54 186 2.0 2.0 0.00 0.00 0.00 41
20260503035003 54 122 0.0 0.0 0.00 0.00 0.00 41
20260503034503 54 114 0.0 0.0 0.00 0.00 0.00 41
20260503034003 54 100 0.0 0.0 0.00 0.00 0.00 40
20260503033502 55 100 0.0 0.0 0.00 0.00 0.00 40
20260503032503 55 82 0.0 0.0 0.00 0.00 0.00 40
20260503032004 55 83 0.0 0.0 0.00 0.00 0.00 40
20260503031504 55 95 2.0 2.0 0.00 0.00 0.00 40
20260503031003 55 96 0.0 2.0 0.00 0.00 0.00 39
20260503030503 55 86 0.0 0.0 0.00 0.00 0.00 39
20260503030003 55 86 2.0 2.0 0.00 0.00 0.00 39
20260503025504 57 131 0.0 0.0 0.00 0.00 0.00 39
20260503025003 57 175 0.0 0.0 0.00 0.00 0.00 38
20260503024503 57 194 0.0 0.0 0.00 0.00 0.00 39
20260503024003 57 235 0.0 0.0 0.00 0.00 0.00 39
20260503023503 57 192 0.0 0.0 0.00 0.00 0.00 38
20260503023003 57 162 0.0 0.0 0.00 0.00 0.00 38
20260503022502 57 174 0.0 0.0 0.00 0.00 0.00 38
20260503022003 57 176 2.0 2.0 0.00 0.00 0.00 38
20260503021502 57 175 0.0 0.0 0.00 0.00 0.00 38
20260503021004 57 94 0.0 0.0 0.00 0.00 0.00 38
20260503020503 59 181 2.0 2.0 0.00 0.00 0.00 38
20260503020004 59 152 0.0 0.0 0.00 0.00 0.00 38
20260503015503 57 181 0.0 0.0 0.00 0.00 0.00 38
20260503015004 57 193 0.0 2.0 0.00 0.00 0.00 38
20260503014503 57 94 0.0 0.0 0.00 0.00 0.00 38
20260503014003 57 95 0.0 0.0 0.00 0.00 0.00 38
20260503013503 57 94 0.0 0.0 0.00 0.00 0.00 39
20260503012004 57 94 0.0 0.0 0.00 0.00 0.00 38
20260503011503 57 96 0.0 2.0 0.00 0.00 0.00 38
20260503010503 57 92 2.0 2.0 0.00 0.00 0.00 38
20260503005502 57 80 0.0 0.0 0.00 0.00 0.00 38
20260503005004 59 80 0.0 0.0 0.00 0.00 0.00 38
20260503004503 59 79 0.0 0.0 0.00 0.00 0.00 38
20260503004002 59 80 0.0 2.0 0.00 0.00 0.00 37
20260503003503 59 78 2.0 2.0 0.00 0.00 0.00 37
20260503003004 59 80 2.0 2.0 0.00 0.00 0.00 37
20260503002502 59 105 2.0 2.0 0.00 0.00 0.00 37
20260503002003 59 122 2.0 2.0 0.00 0.00 0.00 37
20260503001504 59 123 2.0 2.0 0.00 0.00 0.00 37
20260503001004 59 120 2.0 2.0 0.00 0.00 0.00 37
20260503000503 59 183 0.0 0.0 0.00 0.00 0.00 37
20260503000003 59 168 0.0 0.0 0.00 0.00 0.00 37